Tracking 25612 objects as of 20-May-2022
HD Live streaming from Space Station
objects crossing your sky now

GAOFEN 3 DEB

Track GAOFEN 3 DEB now!
10-day predictions


NORAD ID: 42678
Int'l Code: 2016-049C
Perigee: 741.6 km
Apogee: 753.6 km
Inclination: 98.4 °
Period: 99.6 minutes
Semi major axis: 7118 km
RCS: Unknown
Launch date: August 9, 2016
Source: People's Republic of China (PRC)
Launch site: Jiuquan Satellite Launch Center, China (JSC)

Note: This is SATELLITE DEBRIS
aabbcc
Your satellite tracking list
Your tracking list is empty




NASA's NSSDC Master Catalog

Two Line Element Set (TLE):
1 42678U 16049C   22139.85181757  .00000274  00000-0  90005-4 0  9997
2 42678  98.3633 154.9153 0008388 188.3546 171.7507 14.45470235298676
Source of the keplerian elements: AFSPC